Shenandoah, IA

12:04 PM CDT on October 01, 2016 (GMT -0500)
Shenandoah Municipal

Weather History for KSDA - February, 2014

Change the Weather History Date:

Thursday, February 13, 2014

  Actual Average Record
Temperature  
Mean Temperature 37 °F -  
Max Temperature 51 °F 39 °F 73 °F (1990)
Min Temperature 23 °F 19 °F -5 °F (1965)
Degree Days  
Heating Degree Days 28    
Moisture  
Dew Point 26 °F    
Average Humidity 71    
Maximum Humidity 93    
Minimum Humidity 44    
Precipitation  
Precipitation 0.00 in - - ()
Sea Level Pressure  
Sea Level Pressure 29.77 in    
Wind  
Wind Speed 10 mph (SW)    
Max Wind Speed 18 mph    
Max Gust Speed 22 mph    
Visibility 9 miles    
Events      
Averages and records for this station are not official NWS values.
T = Trace of Precipitation, MM = Missing Value Source: NWS Daily Summary

Daily Weather History Graph

Daily Weather History Graph

Search for Another Location

Airport or City:

Trip Planner

Search our weather history database for the weather conditions in past years. The results will help you decide how hot, cold, wet, or windy it might be!

Date:

Astronomy

Feb. 13, 2014 Rise Set
Actual Time 7:18 AM CST 5:54 PM CST
Civil Twilight 6:49 AM CST 6:22 PM CST
Nautical Twilight 6:17 AM CST 6:54 PM CST
Astronomical Twilight 5:46 AM CST 7:26 PM CST
Moon 5:03 PM CST (2/13) 6:11 AM CST (2/13)
Length of Visible Light 11h 32m
Length of Day
10h 35m
Waxing Gibbous, 99% of the Moon is Illuminated
Feb 13
Waxing Gibbous
Feb 14
Full
Feb 22
Last Quarter
Mar 1
New
Mar 8
First Quarter

Hourly Weather History & Observations

Time (CST) Temp. Windchill Dew Point Humidity Pressure Visibility Wind Dir Wind Speed Gust Speed Precip Events Conditions
12:15 AM 23.0 °F 11.7 °F 21.2 °F 93% 29.91 in 5.0 mi South 11.5 mph - N/A   Overcast
12:35 AM 24.8 °F 13.4 °F 21.2 °F 86% 29.90 in 6.0 mi South 12.7 mph - N/A   Mostly Cloudy
12:55 AM 24.8 °F 12.9 °F 21.2 °F 86% 29.85 in 6.0 mi South 13.8 mph 20.7 mph N/A   Overcast
1:15 AM 24.8 °F 14.0 °F 21.2 °F 86% 29.86 in 6.0 mi South 11.5 mph - N/A   Haze
1:35 AM 24.8 °F 11.1 °F 21.2 °F 86% 29.81 in 6.0 mi South 18.4 mph - N/A   Overcast
1:55 AM 24.8 °F 14.0 °F 21.2 °F 86% 29.86 in 6.0 mi SW 11.5 mph 21.9 mph N/A   Overcast
2:15 AM 24.8 °F 16.1 °F 23.0 °F 93% 29.86 in 6.0 mi SW 8.1 mph - N/A   Overcast
2:35 AM 26.6 °F 16.8 °F 23.0 °F 86% 29.84 in 6.0 mi South 10.4 mph - N/A   Overcast
2:55 AM 26.6 °F 16.2 °F 23.0 °F 86% 29.82 in 6.0 mi South 11.5 mph - N/A   Overcast
3:15 AM 26.6 °F 15.2 °F 23.0 °F 86% 29.81 in 7.0 mi South 13.8 mph - N/A   Overcast
3:35 AM 26.6 °F 16.2 °F 23.0 °F 86% 29.81 in 7.0 mi South 11.5 mph - N/A   Overcast
3:55 AM 26.6 °F 16.8 °F 23.0 °F 86% 29.80 in 7.0 mi South 10.4 mph - N/A   Overcast
4:15 AM 28.4 °F 19.1 °F 23.0 °F 80% 29.79 in 7.0 mi SSW 10.4 mph - N/A   Overcast
4:35 AM 28.4 °F 19.1 °F 24.8 °F 86% 29.79 in 8.0 mi South 10.4 mph - N/A   Overcast
4:55 AM 28.4 °F 18.5 °F 24.8 °F 86% 29.79 in 9.0 mi South 11.5 mph - N/A   Overcast
5:15 AM 26.6 °F 15.7 °F 23.0 °F 86% 29.78 in 10.0 mi SSW 12.7 mph - N/A   Scattered Clouds
5:35 AM 26.6 °F 16.8 °F 23.0 °F 86% 29.78 in 10.0 mi SSW 10.4 mph - N/A   Clear
5:55 AM 26.6 °F 16.2 °F 23.0 °F 86% 29.77 in 10.0 mi SSW 11.5 mph - N/A   Clear
6:15 AM 26.6 °F 16.2 °F 23.0 °F 86% 29.76 in 10.0 mi SSW 11.5 mph - N/A   Clear
6:35 AM 26.6 °F 16.8 °F 23.0 °F 86% 29.76 in 10.0 mi SSW 10.4 mph - N/A   Clear
6:55 AM 26.6 °F 16.2 °F 23.0 °F 86% 29.76 in 10.0 mi SSW 11.5 mph - N/A   Clear
7:15 AM 28.4 °F 17.5 °F 23.0 °F 80% 29.76 in 10.0 mi SSW 13.8 mph - N/A   Clear
7:35 AM 28.4 °F 19.1 °F 23.0 °F 80% 29.76 in 10.0 mi SSW 10.4 mph - N/A   Clear
7:55 AM 28.4 °F 18.5 °F 23.0 °F 80% 29.76 in 10.0 mi SSW 11.5 mph - N/A   Clear
8:15 AM 28.4 °F 20.4 °F 23.0 °F 80% 29.77 in 10.0 mi SW 8.1 mph - N/A   Clear
8:35 AM 28.4 °F 19.1 °F 23.0 °F 80% 29.77 in 10.0 mi SW 10.4 mph - N/A   Clear
8:55 AM 30.2 °F 20.8 °F 24.8 °F 80% 29.77 in 10.0 mi SW 11.5 mph - N/A   Clear
9:15 AM 30.2 °F 21.9 °F 24.8 °F 80% 29.77 in 10.0 mi SW 9.2 mph - N/A   Clear
9:35 AM 33.8 °F 25.3 °F 26.6 °F 75% 29.78 in 10.0 mi SW 11.5 mph - N/A   Clear
9:55 AM 33.8 °F 26.4 °F 26.6 °F 75% 29.78 in 10.0 mi WSW 9.2 mph - N/A   Clear
10:10 AM 35.6 °F 27.5 °F 26.6 °F 70% 29.78 in 10.0 mi SW 11.5 mph - N/A   Clear
10:35 AM 35.6 °F 28.0 °F 26.6 °F 70% 29.78 in 10.0 mi SW 10.4 mph - N/A   Clear
10:55 AM 39.2 °F 33.6 °F 28.4 °F 65% 29.78 in 10.0 mi WSW 8.1 mph - N/A   Clear
11:15 AM 41.0 °F 35.2 °F 30.2 °F 65% 29.79 in - West 9.2 mph - N/A   Clear
11:35 AM 42.8 °F 38.0 °F 30.2 °F 61% 29.77 in 10.0 mi WSW 8.1 mph - N/A   Clear
11:55 AM 44.6 °F 41.4 °F 30.2 °F 57% 29.77 in 10.0 mi WSW 5.8 mph - N/A   Clear
12:15 PM 44.6 °F 39.7 °F 30.2 °F 57% 29.75 in 10.0 mi West 9.2 mph - N/A   Clear
12:35 PM 46.4 °F 42.9 °F 32.0 °F 57% 29.74 in 10.0 mi WSW 6.9 mph - N/A   Clear
12:55 PM 48.2 °F - 32.0 °F 54% 29.72 in 10.0 mi West 10.4 mph - N/A   Clear
1:35 PM 50.0 °F - 30.2 °F 47% 29.72 in 10.0 mi WNW 8.1 mph - N/A   Clear
1:55 PM 51.8 °F - 30.2 °F 44% 29.71 in 10.0 mi WNW 9.2 mph - N/A   Clear
2:10 PM 51.8 °F - 30.2 °F 44% 29.72 in 10.0 mi WNW 8.1 mph 15.0 mph N/A   Clear
2:35 PM 51.8 °F - 30.2 °F 44% 29.71 in 10.0 mi WNW 13.8 mph - N/A   Clear
2:55 PM 51.8 °F - 30.2 °F 44% 29.72 in 10.0 mi WNW 12.7 mph - N/A   Clear
3:15 PM 51.8 °F - 30.2 °F 44% 29.72 in 10.0 mi WNW 11.5 mph 19.6 mph N/A   Clear
3:35 PM 51.8 °F - 30.2 °F 44% 29.72 in 10.0 mi WNW 9.2 mph 18.4 mph N/A   Clear
3:55 PM 51.8 °F - 30.2 °F 44% 29.73 in 10.0 mi NW 9.2 mph 15.0 mph N/A   Clear
4:15 PM 51.8 °F - 30.2 °F 44% 29.73 in 10.0 mi NNW 8.1 mph - N/A   Clear
4:35 PM 51.8 °F - 30.2 °F 44% 29.74 in 10.0 mi NNW 8.1 mph - N/A   Clear
4:55 PM 50.0 °F - 30.2 °F 47% 29.74 in 10.0 mi North 6.9 mph - N/A   Clear
5:15 PM 48.2 °F - 30.2 °F 50% 29.74 in 10.0 mi North 4.6 mph - N/A   Clear
5:35 PM 46.4 °F 44.3 °F 28.4 °F 50% 29.74 in 10.0 mi NNE 4.6 mph - N/A   Clear
5:55 PM 42.8 °F 41.1 °F 30.2 °F 61% 29.74 in 10.0 mi NNE 3.5 mph - N/A   Clear
6:15 PM 41.0 °F 37.1 °F 28.4 °F 61% 29.74 in 10.0 mi NE 5.8 mph - N/A   Clear
6:35 PM 37.4 °F 33.8 °F 28.4 °F 70% 29.75 in 10.0 mi NE 4.6 mph - N/A   Clear
6:55 PM 39.2 °F 37.0 °F 28.4 °F 65% 29.75 in 10.0 mi NE 3.5 mph - N/A   Clear
7:10 PM 37.4 °F 34.9 °F 28.4 °F 70% 29.75 in 10.0 mi NE 3.5 mph - N/A   Clear
7:35 PM 35.6 °F 29.2 °F 26.6 °F 70% 29.75 in 10.0 mi NE 8.1 mph - N/A   Clear
7:55 PM 37.4 °F 29.8 °F 26.6 °F 65% 29.76 in 10.0 mi NE 11.5 mph - N/A   Partly Cloudy
8:15 PM 35.6 °F 27.1 °F 26.6 °F 70% 29.75 in 10.0 mi NNE 12.7 mph - N/A   Scattered Clouds
8:35 PM 35.6 °F 29.2 °F 26.6 °F 70% 29.76 in 10.0 mi NE 8.1 mph - N/A   Clear
8:55 PM 33.8 °F 26.4 °F 26.6 °F 75% 29.76 in 10.0 mi ENE 9.2 mph - N/A   Partly Cloudy
9:15 PM 32.0 °F 24.2 °F 26.6 °F 80% 29.76 in 10.0 mi NE 9.2 mph - N/A   Partly Cloudy
9:35 PM 32.0 °F 26.4 °F 24.8 °F 75% 29.76 in 10.0 mi ENE 5.8 mph - N/A   Clear
9:55 PM 32.0 °F 24.8 °F 24.8 °F 75% 29.77 in 10.0 mi ENE 8.1 mph - N/A   Clear
10:15 PM 30.2 °F 22.6 °F 23.0 °F 75% 29.75 in 10.0 mi ENE 8.1 mph - N/A   Clear
10:35 PM 30.2 °F 21.9 °F 24.8 °F 80% 29.74 in 10.0 mi ENE 9.2 mph - N/A   Partly Cloudy
10:55 PM 30.2 °F 22.6 °F 23.0 °F 75% 29.73 in 10.0 mi ENE 8.1 mph - N/A   Mostly Cloudy
11:15 PM 30.2 °F 21.9 °F 23.0 °F 75% 29.72 in 10.0 mi ENE 9.2 mph - N/A   Partly Cloudy
11:35 PM 26.6 °F 20.0 °F 21.2 °F 80% 29.72 in 10.0 mi NE 5.8 mph - N/A   Clear
11:55 PM 26.6 °F 20.0 °F 23.0 °F 86% 29.71 in 10.0 mi NE 5.8 mph - N/A   Mostly Cloudy